COSMOS 1275 DEB, 12769

Orbit data source: Space-Track

COSMOS 1275 DEB, 12769 is space debris in LEO originally from a launch on Thu, 04 Jun 1981 UTC launched from the Plesetsk Missile And Space Complex (PKMTR). Debris objects in space refer to the collection of defunct objects orbiting the Earth. Examples of debris include non-operational satellites, rocket bodies, and fragments generated from explosions, collisions, or faulty payload assembly.

Loading next visibility...
Identifier
12769, 1981-053DN
Orbit
LEO
Country
Flag of CISCIS
Related business
Manufacturer
Unknown
Mission
Spacecraft
Bus & Motor
Unknown
Mass
Unknown
Launch date (UTC)
1981-06-04 (45 years ago)
Launch vehicle
Unknown
Launch site
Plesetsk Missile And Space Complex (PKMTR)
Object type
Payload
Rocket body
Debris
Shape & HBR
Unknown shape, 0.3 m
Radar Cross Section
Medium (>0.1 m² and <1 m²)

Expand to show TLE details & history
Last TLE update: 11 hours ago

TLE from 11 hours ago
0 COSMOS 1275 DEB
1 12769U 81053DN  25350.87809700  .00000559  00000-0  57010-3 0  9991
2 12769  82.8206 280.9392 0069840 154.9047 267.1462 13.73884698216962
Epoch: 2025-12-16T21:04Z
TLE epoch observation values (Epoch: 2025-12-16T21:04:27.580Z)
Latitude
60.53599°
Longitude
-108.11625°
Altitude
998.892 km
Speed
7.356 km/s
True Right ascension
19h 35m 01s
True Declination
60° 23' 36"
Sunlit
Object was in daylight at epoch
Visualization orbit readout
Latitude
Unknown
Longitude
Unknown
Altitude
Unknown
Speed
Unknown
Apparent Right ascension
Unknown
Apparent Declination
Unknown
Sunlit
N/A
Visualization observer readout
Local Sidereal Time
07:14:13
Azimuth
Unknown
Elevation
Unknown
Doppler factor
Unknown
Orbital elements
Apogee altitude
1,034.221 km
Perigee altitude
931.403 km
Semi-major axis
7,360.949 km
Eccentricity
0.00698
Inclination
82.8206°
RAAN
280.9392°
Arg. of periapsis
154.9047°
True anomaly
266.34726°
Mean anomaly
267.1462°
Eccentric anomaly
266.74669°
Mean motion
3.43671 °/min
Orbital period
104.75 mins
BSTAR
0.0005701
Loading maneuver chart data...
Computing Atmospheric mass density...

Documentation

Showing up to 5 results
|